Regional Weather Roundup
Issued by NWS

Home | Current Version | Previous Version | Graphics & Text | Print | Product List | Glossary Off
Versions: 1 2 3 4 5 6 7 8 9 10 11 12 13 14 15 16 17 18 19 20 21 22 23 24 25 26 27 28 29 30 31 32 33 34 35 36 37 38 39 40 41 42 43 44 45 46 47 48 49 50

000
ASUS43 KLMK 091610
RWRKY
KENTUCKY REGIONAL WEATHER ROUNDUP
NATIONAL WEATHER SERVICE LOUISVILLE KY
1100 AM EST TUE FEB 09 2016

NOTE "FAIR" INDICATES FEW OR NO CLOUDS BELOW 12,000 FEET
WITH NO SIGNIFICANT WEATHER AND/OR OBSTRUCTIONS TO VISIBILITY.

KYZ001>023-026-027-061>063-070>075-091700-
WESTERN AND SOUTH CENTRAL KENTUCKY

CITY           SKY/WX    TMP DP  RH WIND       PRES   REMARKS
PADUCAH        LGT SNOW  24  17  74 NW9       29.97R WCI  14
HENDERSON      CLOUDY    21  10  63 W15       29.93R WCI   8
OWENSBORO      LGT SNOW  23  18  81 W10       29.91S WCI  12
HOPKINSVILLE   LGT SNOW  22  17  81 NW8       29.92R WCI  13
BOWLING GREEN  CLOUDY    24  17  74 NW6       29.91R WCI  17
GLASGOW        FLURRIES  23  16  74 NW9       29.88S WCI  13
$$

KYZ024-025-028>034-038-045-046-053-091700-
NORTH CENTRAL KENTUCKY

CITY           SKY/WX    TMP DP  RH WIND       PRES   REMARKS
LOUISVILLE/SDF FLURRIES  24  16  71 W16       29.86R WCI  11
LOUISVILLE/LOU CLOUDY    23  15  71 W14       29.86R WCI  11
FORT KNOX      FLURRIES  22  14  72 W14       29.84R WCI   9
$$

KYZ035>037-039>044-047>052-055>060-089>105-091700-
NORTHEAST KENTUCKY

CITY           SKY/WX    TMP DP  RH WIND       PRES   REMARKS
LEXINGTON      CLOUDY    22  16  78 W12       29.80S WCI  10
COVINGTON      LGT SNOW  22  17  81 W10       29.77S WCI  11
FRANKFORT      CLOUDY    23  15  71 W8G17     29.81S WCI  14
$$

KYZ054-064>069-076>088-106>120-091700-
SOUTHEAST KENTUCKY

CITY           SKY/WX    TMP DP  RH WIND       PRES   REMARKS
JACKSON        LGT SNOW  22  14  71 VRB3      29.77R
LONDON         LGT SNOW  21  15  78 W9        29.81R WCI  11
SOMERSET       FLURRIES  21  16  79 W10       29.86S WCI  10
MIDDLESBORO    CLOUDY    24  15  68 W7        29.82S WCI  15
MONTICELLO     FLURRIES  22  16  78 W12       29.86S WCI  10
$$




USA.gov is the U.S. government's official web portal to all federal, state and local government web resources and services.